Alabaster, AL

7:31 PM CST on December 13, 2019 (GMT -0600)
Shelby County

Weather History for KEET - August, 2019

Change the Weather History Date:

Sunday, August 4, 2019

  Actual Average Record
Temperature  
Mean Temperature 80 °F 81 °F  
Max Temperature 91 °F 91 °F 99 °F (2006)
Min Temperature 68 °F 71 °F 61 °F (1976)
Cooling Degree Days 15 16  
Month to date cooling degree days 63 64  
Year to date cooling degree days 1352 1194  
Since 1 June cooling degree days 955 925  
Growing Degree Days 30 (Base 50)    
Moisture  
Dew Point 70 °F    
Average Humidity 72    
Maximum Humidity 97    
Minimum Humidity 47    
Precipitation  
Precipitation 0.08 in 0.15 in 0.81 in (2010)
Month to date precipitation 0.10 0.57  
Year to date precipitation 31.38 33.89  
Sea Level Pressure  
Sea Level Pressure 29.97 in    
Wind  
Wind Speed 3 mph (West)    
Max Wind Speed 12 mph    
Max Gust Speed 15 mph    
Visibility 10 miles    
Events Rain , Thunderstorm    
T = Trace of Precipitation, MM = Missing Value Source: NWS Daily Summary

Daily Weather History Graph

Daily Weather History Graph

Search for Another Location

Airport or City:

Astronomy

Aug. 04, 2019 Rise Set
Actual Time 6:02 AM CDT 7:43 PM CDT
Civil Twilight 5:35 AM CDT 8:10 PM CDT
Nautical Twilight 5:02 AM CDT 8:42 PM CDT
Astronomical Twilight 4:28 AM CDT 9:17 PM CDT
Moon 9:56 AM CDT (8/4) 10:36 PM CDT (8/4)
Length of Visible Light 14h 35m
Length of Day
13h 41m
Waxing Crescent, 18% of the Moon is Illuminated
Aug 4
Waxing Crescent
Aug 7
First Quarter
Aug 15
Full
Aug 23
Last Quarter
Aug 30
New

Hourly Weather History & Observations

Time (CDT) Temp. Heat Index Dew Point Humidity Pressure Visibility Wind Dir Wind Speed Gust Speed Precip Events Conditions
12:53 AM 70.0 °F - 68.0 °F 93% 29.99 in 10.0 mi Calm Calm - N/A   Clear
1:53 AM 69.1 °F - 68.0 °F 96% 29.97 in 10.0 mi Calm Calm - N/A   Clear
2:53 AM 69.1 °F - 66.9 °F 93% 29.97 in 10.0 mi NNW 3.5 mph - N/A   Clear
3:53 AM 69.1 °F - 66.9 °F 93% 29.97 in 10.0 mi Calm Calm - N/A   Clear
4:53 AM 68.0 °F - 66.9 °F 96% 29.98 in 10.0 mi Calm Calm - N/A   Clear
5:53 AM 68.0 °F - 66.0 °F 93% 29.99 in 10.0 mi Calm Calm - N/A   Clear
6:53 AM 70.0 °F - 68.0 °F 93% 29.99 in 10.0 mi Calm Calm - N/A   Clear
7:53 AM 73.9 °F - 70.0 °F 87% 30.01 in 10.0 mi Calm Calm - N/A   Partly Cloudy
8:53 AM 77.0 °F - 70.0 °F 79% 30.01 in 10.0 mi Calm Calm - N/A   Clear
9:53 AM 82.0 °F 85.5 °F 69.1 °F 65% 30.01 in 10.0 mi Variable 3.5 mph - N/A   Clear
10:53 AM 84.9 °F 88.8 °F 69.1 °F 59% 30.00 in 10.0 mi Variable 5.8 mph - N/A   Scattered Clouds
11:53 AM 90.0 °F 93.6 °F 68.0 °F 48% 29.98 in 10.0 mi NNW 4.6 mph - N/A   Partly Cloudy
12:53 PM 91.0 °F 95.2 °F 68.0 °F 47% 29.97 in 10.0 mi Calm Calm - N/A   Mostly Cloudy
1:43 PM 88.0 °F 92.1 °F 69.1 °F 53% 29.96 in 10.0 mi South 8.1 mph - N/A Thunderstorm Mostly Cloudy
1:53 PM 87.1 °F 91.3 °F 69.1 °F 55% 29.94 in 10.0 mi South 6.9 mph - N/A Thunderstorm Mostly Cloudy
2:26 PM 82.9 °F 86.5 °F 69.1 °F 63% 29.95 in 10.0 mi South 6.9 mph - N/A   Mostly Cloudy
2:53 PM 81.0 °F 84.9 °F 71.1 °F 72% 29.94 in 10.0 mi SSW 10.4 mph - 0.00 in Rain , Thunderstorm Light Thunderstorms and Rain
3:35 PM 77.0 °F - 71.1 °F 82% 29.96 in 1.5 mi Calm Calm - 0.05 in Rain , Thunderstorm Thunderstorms and Rain
3:44 PM 77.0 °F - 72.0 °F 84% 29.95 in 2.0 mi Calm Calm - 0.08 in Rain Rain
3:53 PM 78.1 °F - 73.0 °F 84% 29.93 in 10.0 mi Calm Calm - 0.08 in Rain Light Rain
4:53 PM 79.0 °F - 72.0 °F 79% 29.93 in 10.0 mi South 3.5 mph - 0.00 in   Clear
5:53 PM 82.9 °F 87.5 °F 71.1 °F 67% 29.94 in 10.0 mi South 8.1 mph - N/A   Clear
6:53 PM 77.0 °F - 70.0 °F 79% 29.93 in 10.0 mi SSW 3.5 mph - N/A   Clear
7:53 PM 75.9 °F - 72.0 °F 87% 29.94 in 10.0 mi Calm Calm - N/A   Clear
8:12 PM 75.9 °F - 72.0 °F 87% 29.96 in 10.0 mi West 3.5 mph - N/A   Mostly Cloudy
8:51 PM 75.2 °F - 71.6 °F 89% 29.98 in 10.0 mi WNW 3.5 mph - N/A   Scattered Clouds
8:53 PM 75.0 °F - 72.0 °F 90% 29.96 in 10.0 mi WNW 3.5 mph - N/A   Scattered Clouds
9:44 PM 75.9 °F - 72.0 °F 87% 30.02 in 10.0 mi North 3.5 mph - N/A   Mostly Cloudy
9:53 PM 75.9 °F - 71.1 °F 85% 30.00 in 10.0 mi North 4.6 mph - N/A   Mostly Cloudy
10:53 PM 75.9 °F - 68.0 °F 76% 30.00 in 10.0 mi North 6.9 mph - N/A   Scattered Clouds
11:53 PM 73.0 °F - 66.9 °F 81% 29.95 in 10.0 mi Calm Calm - N/A   Partly Cloudy